Simultaneous Nadir Overpasses (SNOs) Predictions

Prediction of SNOs near US between AQUA and NPP Satellite Orbit:

Table of predicted SNOs near US for the next 10.0 days since TLE Epoch: 3/18/2022
Index Date (AQUA) Time (AQUA) AQUA Lat,Lon Date (NPP) Time (NPP) NPP Lat,Lon Distance(km) Time Diff (sec)
1 03/19/2022 08:33:30 21.77,-100.80 03/19/2022 08:25:39 21.91,-101.58 81.48 471
2 03/19/2022 10:09:52 30.85,-123.26 03/19/2022 10:04:32 31.09,-124.54 124.98 320
3 03/22/2022 07:17:31 49.89, -75.25 03/22/2022 07:20:23 50.46, -78.13 214.46 172
4 03/24/2022 18:15:31 49.96, -79.45 03/24/2022 18:10:40 49.60, -81.69 165.34 291
5 03/24/2022 19:54:24 49.97,-104.18 03/24/2022 19:52:08 49.49,-107.02 210.73 136
6 03/27/2022 07:44:03 20.02, -88.70 03/27/2022 07:35:43 19.04, -89.60 143.41 500
7 03/27/2022 09:20:42 28.01,-111.48 03/27/2022 09:14:35 28.23,-112.64 116.00 367
